Flag Weather past 2 weeks in Annapolis, Maryland, U.S.A.

Now
37 °F

Mostly cloudy.


Feels Like: 33 °F
Forecast: 32 / 40 °F
Wind: 5 mph from West

Location: Annapolis - United States Naval Academy

Current Time: Nov 27, 2014 at 12:49:03 AM

Latest Report: Nov 26, 2014 at 11:54 PM


Visibility: 10 mi

Pressure: 30.00 "Hg

Humidity: 82%

Dew point: 32 °F

Location of AnnapolisLocation

Historic Weather in Annapolis — Graph

°F

Annapolis temperature yesterday

Maximum temperature yesterday: 48 °F (at 1:54 AM)
Minimum temperature yesterday: 35 °F (at 11:54 AM)
Average temperature yesterday: 40 °F

Past Weeks' High & Low Weather Summary

 TemperatureHumidityPressure
High70 °F (Nov 24, 12:54 PM)97% (Nov 12, 7:54 AM)30.56 "Hg (Nov 12, 7:54 AM)
Low22 °F (Nov 19, 6:54 AM)25% (Nov 22, 2:54 PM)29.54 "Hg (Nov 17, 2:54 PM)
Average43 °F59%30.11 "Hg
* Reported Nov 11 10:54 PM — Nov 26 10:54 PM, Annapolis, Weather by CustomWeather, © 2014

Note: Actual official high and low records may vary slightly from our data, if they occured in-between our weather recording intervals... More about our weather records

Advertising

Annapolis weather history for previous 24 hours

 ConditionsComfort  
Time TempWeatherWind HumidityBarometerVisibility
10:54 PM
Nov 26
38 °FMostly cloudy.7 mph83%30.00 "Hg10 mi
9:54 PM37 °FMostly cloudy.8 mph86%29.97 "Hg10 mi
8:54 PM38 °FOvercast.8 mph86%29.94 "Hg10 mi
7:54 PM38 °FOvercast.12 mph86%29.94 "Hg10 mi
6:54 PM38 °FOvercast.13 mph90%29.93 "Hg10 mi
5:54 PM38 °FLight rain. Overcast.15 mph90%29.93 "Hg9 mi
4:54 PM38 °FLight rain. Overcast.16 mph90%29.92 "Hg7 mi
3:54 PM36 °FLight snow. Fog.16 mph92%29.90 "Hg3 mi
2:54 PM38 °FLight rain. Overcast.15 mph90%29.85 "Hg10 mi
1:54 PM38 °FLight rain. Fog.13 mph90%29.90 "Hg6 mi
12:54 PM36 °FLight rain. Fog.12 mph92%29.90 "Hg3 mi
12:03 PM35 °FLight snow. Fog.9 mph92%29.97 "Hg2 mi
11:54 AM35 °FLight snow. Fog.9 mph92%29.98 "Hg2 mi
10:54 AM38 °FRain. Fog.9 mph90%30.03 "Hg2 mi
9:54 AM40 °FRain. Fog.7 mph89%30.06 "Hg3 mi
8:54 AM41 °FRain. Fog.13 mph86%30.10 "Hg2 mi
7:54 AM42 °FLight rain. Fog.10 mph85%30.06 "Hg4 mi
6:59 AM44 °FLight rain. Fog.3 mph89%30.09 "Hg2 mi
5:54 AM44 °FLight rain. Mostly cloudy.3 mph82%30.10 "Hg5 mi
4:54 AM45 °FLight rain. Overcast.3 mph80%30.08 "Hg8 mi
3:54 AM46 °FLight rain. Overcast.8 mph77%30.06 "Hg9 mi
2:54 AM47 °FLight rain. Overcast.5 mph69%30.10 "Hg10 mi
1:54 AM48 °FOvercast.No wind66%30.15 "Hg10 mi
12:54 AM46 °FPassing clouds.3 mph83%30.15 "Hg10 mi
Weather by CustomWeather, © 2014

See weather overviewHow to use our weather pages